Weather History for Bentonville, AR

Change the Weather History Date:

Saturday, November 23, 2013

  Actual Average Record
Temperature  
Mean Temperature 30 °F -  
Max Temperature 37 °F 54 °F 73 °F (1983)
Min Temperature 23 °F 33 °F 17 °F (1975)
Degree Days  
Heating Degree Days 35    
Moisture  
Dew Point 20 °F    
Average Humidity 62    
Maximum Humidity 86    
Minimum Humidity 41    
Precipitation  
Precipitation 0.00 in - - ()
Sea Level Pressure  
Sea Level Pressure 30.57 in    
Wind  
Wind Speed 12 mph (NNE)    
Max Wind Speed 18 mph    
Max Gust Speed 24 mph    
Visibility 10 miles    
Events      
Averages and records for this station are not official NWS values.
T = Trace of Precipitation, MM = Missing Value Source: NWS Daily Summary

Daily Weather History Graph

Daily Weather History Graph

Search for Another Location

Airport:

Trip Planner

Search our weather history database for the weather conditions in past years. The results will help you decide how hot, cold, wet, or windy it might be!

Date:

Astronomy

Nov. 23, 2013 Rise Set
Actual Time 7:02 AM CST 5:04 PM CST
Civil Twilight 6:34 AM CST 5:31 PM CST
Nautical Twilight 6:03 AM CST 6:03 PM CST
Astronomical Twilight 5:32 AM CST 6:34 PM CST
Moon 10:29 PM CST (11/23) 11:22 AM CST (11/23)
Length of Visible Light 10h 57m
Length of Day
10h 01m
Waning Gibbous, 69% of the Moon is Illuminated
Nov 23
Waning Gibbous
Nov 25
Last Quarter
Dec 2
New
Dec 9
First Quarter
Dec 17
Full

Hourly Weather History & Observations

Time (CST) Temp. Windchill Dew Point Humidity Pressure Visibility Wind Dir Wind Speed Gust Speed Precip Events Conditions
12:15 AM 30.2 °F 20.8 °F 26.6 °F 86% 30.49 in 10.0 mi NNE 11.5 mph - N/A   Overcast
12:35 AM 30.2 °F 21.9 °F 26.6 °F 86% 30.48 in 10.0 mi NNE 9.2 mph - N/A   Overcast
12:55 AM 32.0 °F 23.6 °F 26.6 °F 80% 30.49 in 10.0 mi North 10.4 mph - N/A   Overcast
1:15 AM 30.2 °F 20.8 °F 26.6 °F 86% 30.48 in 10.0 mi NNE 11.5 mph - N/A   Overcast
1:35 AM 32.0 °F 24.2 °F 26.6 °F 80% 30.49 in 10.0 mi NNE 9.2 mph - N/A   Overcast
1:55 AM 32.0 °F 24.2 °F 26.6 °F 80% 30.50 in 10.0 mi NNE 9.2 mph - N/A   Overcast
2:15 AM 32.0 °F 23.6 °F 26.6 °F 80% 30.49 in 10.0 mi NNE 10.4 mph - N/A   Overcast
2:35 AM 32.0 °F 26.4 °F 26.6 °F 80% 30.50 in 10.0 mi NNE 5.8 mph - N/A   Overcast
2:55 AM 32.0 °F 23.6 °F 26.6 °F 80% 30.50 in 10.0 mi NNE 10.4 mph - N/A   Overcast
3:15 AM 32.0 °F 23.0 °F 26.6 °F 80% 30.50 in 10.0 mi NNE 11.5 mph - N/A   Overcast
3:35 AM 32.0 °F 24.8 °F 26.6 °F 80% 30.50 in 10.0 mi NE 8.1 mph - N/A   Overcast
3:55 AM 32.0 °F 23.6 °F 26.6 °F 80% 30.49 in 10.0 mi NE 10.4 mph - N/A   Overcast
4:15 AM 32.0 °F 23.0 °F 26.6 °F 80% 30.51 in 10.0 mi NNE 11.5 mph - N/A   Overcast
4:35 AM 32.0 °F 24.2 °F 26.6 °F 80% 30.49 in 10.0 mi NNE 9.2 mph - N/A   Overcast
4:55 AM 32.0 °F 23.0 °F 26.6 °F 80% 30.51 in 10.0 mi NNE 11.5 mph - N/A   Overcast
5:15 AM 32.0 °F 21.6 °F 26.6 °F 80% 30.51 in 10.0 mi NNE 15.0 mph - N/A   Overcast
5:35 AM 30.2 °F 21.3 °F 24.8 °F 80% 30.52 in 10.0 mi NNE 10.4 mph 19.6 mph N/A   Overcast
5:55 AM 30.2 °F 20.8 °F 24.8 °F 80% 30.53 in 10.0 mi NNE 11.5 mph - N/A   Overcast
6:15 AM 30.2 °F 19.8 °F 24.8 °F 80% 30.53 in 10.0 mi NNE 13.8 mph - N/A   Overcast
6:35 AM 30.2 °F 20.2 °F 24.8 °F 80% 30.54 in 10.0 mi NNE 12.7 mph - N/A   Overcast
6:55 AM 30.2 °F 20.8 °F 26.6 °F 86% 30.55 in 10.0 mi North 11.5 mph - N/A   Overcast
7:15 AM 30.2 °F 21.3 °F 24.8 °F 80% 30.56 in 10.0 mi NNE 10.4 mph - N/A   Overcast
7:35 AM 30.2 °F 21.3 °F 24.8 °F 80% 30.57 in 10.0 mi NNE 10.4 mph - N/A   Overcast
7:55 AM 32.0 °F 24.2 °F 24.8 °F 75% 30.58 in 10.0 mi NNE 9.2 mph - N/A   Overcast
8:15 AM 32.0 °F 22.5 °F 24.8 °F 75% 30.58 in 10.0 mi NNE 12.7 mph - N/A   Overcast
8:35 AM 32.0 °F 23.0 °F 24.8 °F 75% 30.58 in 10.0 mi NNE 11.5 mph - N/A   Overcast
8:55 AM 33.8 °F 24.3 °F 24.8 °F 70% 30.58 in 10.0 mi NNE 13.8 mph - N/A   Overcast
9:15 AM 33.8 °F 23.9 °F 23.0 °F 65% 30.58 in 10.0 mi NNE 15.0 mph - N/A   Overcast
9:35 AM 33.8 °F 23.5 °F 21.2 °F 60% 30.59 in 10.0 mi NNE 16.1 mph - N/A   Overcast
9:55 AM 33.8 °F 26.4 °F 19.4 °F 56% 30.59 in 10.0 mi NNE 9.2 mph - N/A   Overcast
10:15 AM 33.8 °F 25.3 °F 19.4 °F 56% 30.60 in 10.0 mi NNE 11.5 mph 18.4 mph N/A   Overcast
10:35 AM 33.8 °F 24.3 °F 19.4 °F 56% 30.60 in 10.0 mi North 13.8 mph - N/A   Overcast
10:55 AM 33.8 °F 25.3 °F 17.6 °F 52% 30.60 in 10.0 mi NNE 11.5 mph - N/A   Overcast
11:15 AM 35.6 °F 28.6 °F 17.6 °F 48% 30.60 in 10.0 mi NNE 9.2 mph - N/A   Overcast
11:35 AM 35.6 °F 27.5 °F 15.8 °F 44% 30.60 in 10.0 mi North 11.5 mph 17.3 mph N/A   Mostly Cloudy
11:55 AM 35.6 °F 27.5 °F 17.6 °F 48% 30.59 in 10.0 mi North 11.5 mph - N/A   Scattered Clouds
12:15 PM 35.6 °F 26.2 °F 15.8 °F 44% 30.59 in 10.0 mi NNE 15.0 mph - N/A   Mostly Cloudy
12:35 PM 35.6 °F 25.9 °F 15.8 °F 44% 30.59 in 10.0 mi NNE 16.1 mph - N/A   Overcast
12:55 PM 35.6 °F 25.9 °F 14.0 °F 41% 30.59 in 10.0 mi NNE 16.1 mph 20.7 mph N/A   Overcast
1:15 PM 35.6 °F 27.1 °F 15.8 °F 44% 30.58 in 10.0 mi NNE 12.7 mph 23.0 mph N/A   Mostly Cloudy
1:35 PM 37.4 °F 28.5 °F 15.8 °F 41% 30.58 in 10.0 mi North 15.0 mph - N/A   Mostly Cloudy
1:55 PM 37.4 °F 29.8 °F 17.6 °F 45% 30.57 in 10.0 mi North 11.5 mph - N/A   Scattered Clouds
2:15 PM 35.6 °F 26.6 °F 17.6 °F 48% 30.57 in 10.0 mi NNE 13.8 mph - N/A   Clear
2:35 PM 37.4 °F 28.9 °F 19.4 °F 48% 30.57 in 10.0 mi NNE 13.8 mph - N/A   Clear
2:55 PM 37.4 °F 28.9 °F 19.4 °F 48% 30.57 in 10.0 mi North 13.8 mph - N/A   Clear
3:15 PM 37.4 °F 28.2 °F 21.2 °F 52% 30.57 in 10.0 mi NNE 16.1 mph - N/A   Clear
3:35 PM 37.4 °F 28.5 °F 19.4 °F 48% 30.57 in 10.0 mi NNE 15.0 mph 19.6 mph N/A   Clear
3:55 PM 37.4 °F 29.8 °F 19.4 °F 48% 30.57 in 10.0 mi NNE 11.5 mph - N/A   Clear
4:15 PM 37.4 °F 29.8 °F 19.4 °F 48% 30.57 in 10.0 mi North 11.5 mph - N/A   Clear
4:35 PM 37.4 °F 30.3 °F 19.4 °F 48% 30.57 in 10.0 mi NNE 10.4 mph - N/A   Clear
4:55 PM 35.6 °F 26.6 °F 19.4 °F 52% 30.58 in 10.0 mi North 13.8 mph 18.4 mph N/A   Clear
5:15 PM 35.6 °F 25.5 °F 19.4 °F 52% 30.58 in 10.0 mi North 17.3 mph - N/A   Clear
5:35 PM 33.8 °F 24.3 °F 17.6 °F 52% 30.59 in 10.0 mi NNE 13.8 mph 17.3 mph N/A   Clear
5:55 PM 33.8 °F 24.8 °F 17.6 °F 52% 30.60 in 10.0 mi North 12.7 mph - N/A   Clear
6:15 PM 32.0 °F 21.6 °F 17.6 °F 55% 30.60 in 10.0 mi North 15.0 mph 18.4 mph N/A   Clear
6:35 PM 30.2 °F 18.1 °F 15.8 °F 55% 30.60 in 10.0 mi North 18.4 mph 24.2 mph N/A   Clear
6:55 PM 28.4 °F 16.6 °F 14.0 °F 55% 30.61 in 10.0 mi North 16.1 mph - N/A   Clear
7:15 PM 28.4 °F 17.0 °F 12.2 °F 51% 30.62 in 10.0 mi North 15.0 mph - N/A   Clear
7:35 PM 28.4 °F 17.5 °F 12.2 °F 51% 30.62 in 10.0 mi NNE 13.8 mph 19.6 mph N/A   Clear
7:55 PM 26.6 °F 15.7 °F 12.2 °F 55% 30.62 in 10.0 mi NNE 12.7 mph 19.6 mph N/A   Clear
8:15 PM 26.6 °F 15.7 °F 12.2 °F 55% 30.62 in 10.0 mi NNE 12.7 mph - N/A   Clear
8:35 PM 26.6 °F 16.8 °F 12.2 °F 55% 30.62 in 10.0 mi NNE 10.4 mph 18.4 mph N/A   Clear
8:55 PM 26.6 °F 15.7 °F 12.2 °F 55% 30.62 in 10.0 mi NNE 12.7 mph - N/A   Clear
9:15 PM 26.6 °F 15.7 °F 10.4 °F 51% 30.62 in 10.0 mi NNE 12.7 mph - N/A   Clear
9:35 PM 26.6 °F 16.8 °F 10.4 °F 51% 30.62 in 10.0 mi NNE 10.4 mph - N/A   Clear
9:55 PM 24.8 °F 14.0 °F 10.4 °F 54% 30.62 in 10.0 mi NNE 11.5 mph - N/A   Clear
10:15 PM 24.8 °F 15.3 °F 10.4 °F 54% 30.62 in 10.0 mi NNE 9.2 mph - N/A   Clear
10:35 PM 24.8 °F 12.9 °F 8.6 °F 50% 30.62 in 10.0 mi NNE 13.8 mph 18.4 mph N/A   Clear
10:55 PM 24.8 °F 15.3 °F 10.4 °F 54% 30.62 in 10.0 mi NNE 9.2 mph - N/A   Clear
11:15 PM 24.8 °F 16.9 °F 10.4 °F 54% 30.63 in 10.0 mi NNE 6.9 mph - N/A   Clear
11:35 PM 23.0 °F 12.4 °F 10.4 °F 59% 30.62 in 10.0 mi NE 10.4 mph - N/A   Clear
11:55 PM 23.0 °F 13.1 °F 10.4 °F 59% 30.61 in 10.0 mi NE 9.2 mph - N/A   Clear